EW5627 Weather Reports


Display with metric or nautical units.
time (UTC)temp
F
wind
direction
speed
MPH
gust
MPH
rain 1hr
in
rain 24hr
in
rain mn
in
humidity
%
barometer
mb
20260904044511 76 121 0.0 0.0 0.00 0.15 0.00 87 1010.4
20260904043009 76 121 0.0 0.0 0.00 0.15 0.00 87 1010.4
20260904041508 76 121 0.0 0.0 0.00 0.15 0.00 87 1010.5
20260904040007 76 121 0.0 0.0 0.00 0.15 0.00 87 1010.6
20260904034505 76 121 0.0 0.0 0.00 0.15 0.15 87 1010.6
20260904033006 76 121 0.0 0.0 0.00 0.15 0.15 86 1010.6
20260904031504 76 122 0.0 0.0 0.00 0.15 0.15 86 1010.7
20260904030003 76 122 0.0 0.0 0.00 0.15 0.15 86 1010.8
20260904024502 76 119 0.0 0.0 0.00 0.15 0.15 86 1011.0
20260904023003 76 119 0.0 0.0 0.00 0.15 0.15 87 1011.2
20260904021501 76 119 0.0 0.0 0.00 0.15 0.15 87 1011.4
20260904020001 75 119 0.0 0.0 0.00 0.15 0.15 87 1011.6
20260904014643 75 119 0.0 0.0 0.00 0.15 0.15 87 1011.7
20260904013102 75 116 0.0 0.0 0.00 0.15 0.15 86 1011.5
20260904011559 75 116 0.0 0.0 0.00 0.15 0.15 85 1011.8
20260904010058 76 109 0.0 0.0 0.00 0.15 0.15 85 1011.4
20260904004602 76 109 0.0 0.0 0.00 0.15 0.15 85 1011.6
20260904003101 76 109 0.0 0.0 0.00 0.15 0.15 85 1011.4
20260904001556 77 109 0.0 0.0 0.00 0.15 0.15 84 1011.3
20260904000138 77 109 0.0 0.0 0.00 0.15 0.15 83 1011.3
20260903234554 77 109 0.0 0.0 0.00 0.15 0.15 82 1011.1
20260903233055 78 109 0.0 0.0 0.00 0.15 0.15 82 1010.9
20260903231600 79 109 0.0 0.0 0.00 0.15 0.15 81 1010.9
20260903224555 80 109 0.0 0.0 0.00 0.15 0.15 79 1011.1
20260903223050 81 109 0.0 0.0 0.00 0.15 0.15 78 1011.3
20260903221552 82 109 0.0 0.0 0.00 0.15 0.15 75 1011.3
20260903220105 83 109 0.0 0.0 0.00 0.15 0.15 75 1011.3
20260903214552 84 109 0.0 0.0 0.00 0.15 0.15 72 1011.2
20260903213049 84 109 0.0 0.0 0.00 0.15 0.15 73 1011.2
20260903211545 84 109 0.0 0.0 0.00 0.15 0.15 73 1011.1
20260903210048 84 107 0.0 0.0 0.00 0.15 0.15 75 1011.2
20260903204541 83 105 0.0 0.0 0.00 0.15 0.15 75 1011.2
20260903203043 83 105 0.0 0.0 0.00 0.15 0.15 75 1011.3
20260903201538 83 105 0.0 0.0 0.00 0.15 0.15 75 1011.3
20260903200037 83 105 0.0 0.0 0.00 0.15 0.15 75 1011.4
20260903194546 83 105 0.0 0.0 0.00 0.20 0.15 76 1011.4
20260903193038 84 105 0.0 0.0 0.00 0.20 0.15 72 1011.6
20260903191542 84 105 0.0 2.0 0.00 0.20 0.15 73 1011.6
20260903190035 83 123 1.0 4.0 0.00 0.20 0.15 73 1011.7
20260903184530 84 213 0.0 0.0 0.00 0.44 0.15 73 1011.9
20260903183027 84 227 0.0 0.0 0.00 0.44 0.15 75 1012.0
20260903181536 83 238 0.0 0.0 0.00 0.44 0.15 75 1012.1
20260903180019 82 238 0.0 0.0 0.00 0.44 0.15 76 1012.2
20260903174517 82 239 0.0 0.0 0.00 0.44 0.15 78 1012.4
20260903173015 82 239 0.0 3.0 0.00 0.44 0.15 78 1012.6
20260903171526 82 239 1.0 4.0 0.00 0.44 0.15 77 1012.7
20260903170007 80 159 0.0 2.0 0.00 0.44 0.15 80 1012.7
20260903164505 79 132 0.0 1.0 0.00 0.44 0.15 82 1012.9
20260903163005 78 149 0.0 3.0 0.00 0.44 0.15 87 1012.9
20260903161605 77 177 0.0 0.0 0.00 0.44 0.15 84 1013.1
20260903160103 77 173 0.0 0.0 0.00 0.44 0.15 87 1013.4
20260903154552 75 261 0.0 0.0 0.00 0.44 0.15 89 1013.6
20260903153047 74 173 0.0 0.0 0.00 0.44 0.15 92 1013.3
20260903151543 73 184 0.0 1.0 0.00 0.44 0.15 94 1013.6
20260903150100 72 187 0.0 0.0 0.00 0.44 0.15 95 1013.6
20260903144537 71 202 0.0 0.0 0.00 0.44 0.15 95 1013.6
20260903143038 70 212 0.0 0.0 0.00 0.44 0.15 95 1013.7
20260903141536 70 213 0.0 0.0 0.00 0.44 0.15 95 1013.8
20260903140030 70 212 0.0 0.0 0.00 0.44 0.15 95 1013.7
20260903134530 70 219 0.0 0.0 0.00 0.44 0.15 95 1013.8
20260903133028 69 222 0.0 0.0 0.00 0.44 0.15 95 1013.8
20260903131526 69 205 0.0 0.0 0.00 0.44 0.15 95 1013.7
20260903130023 69 175 0.0 0.0 0.00 0.44 0.15 95 1013.9
20260903124524 69 173 0.0 0.0 0.00 0.44 0.15 95 1014.1
20260903123027 68 171 0.0 0.0 0.00 0.44 0.15 95 1014.5
20260903121518 68 171 0.0 0.0 0.00 0.44 0.15 95 1014.5
20260903120017 68 171 0.0 0.0 0.00 0.44 0.15 95 1014.6
20260903114514 68 171 0.0 0.0 0.00 0.44 0.15 95 1014.4
20260903113012 67 171 0.0 0.0 0.00 0.44 0.15 95 1014.5
20260903111510 67 171 0.0 0.0 0.00 0.44 0.15 95 1014.4
20260903110009 67 171 0.0 0.0 0.00 0.44 0.15 95 1014.5
20260903104508 67 171 0.0 0.0 0.00 0.44 0.15 95 1014.2
20260903103007 68 171 0.0 0.0 0.00 0.44 0.15 95 1014.6
20260903101507 68 164 0.0 0.0 0.00 0.44 0.15 95 1014.2
20260903100018 68 163 0.0 0.0 0.00 0.44 0.15 95 1014.2
20260903094506 68 169 0.0 1.0 0.00 0.44 0.15 95 1013.9
20260903093005 68 178 0.0 0.0 0.00 0.44 0.15 95 1014.0
20260903091504 68 178 0.0 0.0 0.00 0.44 0.15 95 1014.0
20260903090008 67 224 0.0 0.0 0.00 0.44 0.15 95 1014.0
20260903084501 67 185 0.0 0.0 0.01 0.44 0.15 95 1013.9
20260903083100 67 180 0.0 0.0 0.01 0.44 0.15 95 1014.2
20260903081557 67 196 0.0 0.0 0.01 0.44 0.15 95 1014.7
20260903080055 67 196 0.0 0.0 0.02 0.44 0.15 95 1014.8
20260903074554 67 196 0.0 0.0 0.01 0.43 0.14 95 1014.6
20260903073053 67 190 0.0 0.0 0.01 0.43 0.14 95 1014.8
20260903071621 67 171 0.0 1.0 0.01 0.43 0.14 95 1014.8
20260903064549 66 252 0.0 0.0 0.01 0.42 0.13 95 1015.1
20260903063048 66 284 0.0 0.0 0.02 0.42 0.13 95 1015.1
20260903061547 66 284 0.0 0.0 0.04 0.42 0.13 95 1015.4
20260903060048 66 284 0.0 0.0 0.09 0.42 0.13 95 1016.1
20260903054547 66 284 0.0 0.0 0.11 0.42 0.12 95 1016.0
20260903053043 66 287 0.0 0.0 0.11 0.41 0.11 95 1015.9
20260903051544 66 287 0.0 0.0 0.09 0.39 0.09 95 1016.8
20260903050046 66 287 0.0 0.0 0.04 0.34 0.04 95 1017.9